| time (UTC) | temp F | wind direction | speed MPH | gust MPH | rain 1hr in | rain 24hr in | rain mn in | humidity % | barometer mb |
| 20260506095859 | 75 | 185 | 0.0 | 3.0 | 0.00 | 0.00 | 0.00 | 86 | 1003.5 |
| 20260506095406 | 75 | 188 | 0.0 | 3.0 | 0.00 | 0.00 | 0.00 | 86 | 1003.5 |
| 20260506094854 | 75 | 174 | 0.0 | 3.0 | 0.00 | 0.00 | 0.00 | 86 | 1003.5 |
| 20260506094340 | 75 | 174 | 0.0 | 9.0 | 0.00 | 0.00 | 0.00 | 85 | 1003.2 |
| 20260506093847 | 75 | 166 | 2.0 | 9.0 | 0.00 | 0.00 | 0.00 | 85 | 1003.2 |
| 20260506093354 | 75 | 200 | 0.0 | 3.0 | 0.00 | 0.00 | 0.00 | 85 | 1003.2 |
| 20260506092838 | 75 | 200 | 0.0 | 4.0 | 0.00 | 0.00 | 0.00 | 85 | 1002.9 |
| 20260506092404 | 75 | 198 | 1.0 | 4.0 | 0.00 | 0.00 | 0.00 | 85 | 1002.9 |
| 20260506091831 | 75 | 161 | 2.0 | 4.0 | 0.00 | 0.00 | 0.00 | 85 | 1002.9 |
| 20260506091514 | 75 | 170 | 1.0 | 4.0 | 0.00 | 0.00 | 0.00 | 85 | 1002.9 |
| 20260506090937 | 75 | 140 | 0.0 | 5.0 | 0.00 | 0.00 | 0.00 | 85 | 1002.9 |
| 20260506090458 | 75 | 218 | 1.0 | 7.0 | 0.00 | 0.00 | 0.00 | 85 | 1002.9 |
| 20260506085943 | 75 | 179 | 1.0 | 7.0 | 0.00 | 0.00 | 0.00 | 85 | 1002.7 |
| 20260506085449 | 75 | 171 | 1.0 | 7.0 | 0.00 | 0.00 | 0.00 | 85 | 1002.7 |
| 20260506084934 | 75 | 182 | 3.0 | 7.0 | 0.00 | 0.00 | 0.00 | 84 | 1002.7 |
| 20260506084421 | 75 | 275 | 1.0 | 6.0 | 0.00 | 0.00 | 0.00 | 84 | 1002.8 |
| 20260506083927 | 75 | 191 | 3.0 | 6.0 | 0.00 | 0.00 | 0.00 | 84 | 1002.8 |
| 20260506083414 | 75 | 227 | 1.0 | 5.0 | 0.00 | 0.00 | 0.00 | 84 | 1002.8 |
| 20260506082921 | 75 | 225 | 1.0 | 7.0 | 0.00 | 0.00 | 0.00 | 84 | 1002.8 |
| 20260506082413 | 75 | 180 | 1.0 | 8.0 | 0.00 | 0.00 | 0.00 | 84 | 1002.8 |
| 20260506081919 | 75 | 184 | 3.0 | 9.0 | 0.00 | 0.00 | 0.00 | 84 | 1002.8 |
| 20260506081404 | 75 | 238 | 1.0 | 9.0 | 0.00 | 0.00 | 0.00 | 84 | 1002.9 |
| 20260506080911 | 75 | 206 | 2.0 | 10.0 | 0.00 | 0.00 | 0.00 | 84 | 1002.9 |
| 20260506080402 | 75 | 191 | 3.0 | 10.0 | 0.00 | 0.00 | 0.00 | 84 | 1002.9 |
| 20260506073349 | 75 | 194 | 1.0 | 10.0 | 0.00 | 0.00 | 0.00 | 84 | 1003.0 |
| 20260506072836 | 76 | 140 | 2.0 | 10.0 | 0.00 | 0.00 | 0.00 | 84 | 1003.2 |
| 20260506072405 | 75 | 178 | 2.0 | 11.0 | 0.00 | 0.00 | 0.00 | 84 | 1003.2 |
| 20260506071854 | 75 | 233 | 6.0 | 12.0 | 0.00 | 0.00 | 0.00 | 84 | 1003.2 |
| 20260506071441 | 75 | 169 | 4.0 | 12.0 | 0.00 | 0.00 | 0.00 | 84 | 1003.3 |
| 20260506070949 | 75 | 163 | 4.0 | 11.0 | 0.00 | 0.00 | 0.00 | 84 | 1003.3 |
| 20260506070505 | 75 | 179 | 2.0 | 11.0 | 0.00 | 0.00 | 0.00 | 85 | 1003.3 |
| 20260506062436 | 76 | 143 | 3.0 | 10.0 | 0.00 | 0.00 | 0.00 | 84 | 1002.9 |
| 20260506061944 | 76 | 237 | 3.0 | 11.0 | 0.00 | 0.00 | 0.00 | 84 | 1003.0 |
| 20260506061408 | 76 | 156 | 2.0 | 11.0 | 0.00 | 0.00 | 0.00 | 84 | 1003.0 |
| 20260506060915 | 75 | 221 | 3.0 | 11.0 | 0.00 | 0.00 | 0.00 | 85 | 1002.9 |
| 20260506060415 | 75 | 187 | 4.0 | 10.0 | 0.00 | 0.00 | 0.00 | 85 | 1002.9 |
| 20260506050938 | 76 | 184 | 3.0 | 10.0 | 0.00 | 0.00 | 0.00 | 84 | 1003.4 |
| 20260506050436 | 76 | 164 | 2.0 | 11.0 | 0.00 | 0.00 | 0.00 | 84 | 1003.4 |
| 20260506044935 | 76 | 178 | 3.0 | 10.0 | 0.00 | 0.00 | 0.00 | 84 | 1003.1 |
| 20260506044419 | 76 | 165 | 2.0 | 10.0 | 0.00 | 0.00 | 0.00 | 84 | 1003.2 |
| 20260506043927 | 76 | 164 | 3.0 | 7.0 | 0.00 | 0.00 | 0.00 | 84 | 1003.2 |
| 20260506043434 | 76 | 146 | 2.0 | 10.0 | 0.00 | 0.00 | 0.00 | 84 | 1003.2 |
| 20260506042919 | 76 | 159 | 1.0 | 13.0 | 0.00 | 0.00 | 0.00 | 83 | 1002.9 |
| 20260506042426 | 76 | 192 | 3.0 | 13.0 | 0.00 | 0.00 | 0.00 | 83 | 1002.9 |
| 20260506041914 | 76 | 183 | 3.0 | 8.0 | 0.00 | 0.00 | 0.00 | 83 | 1002.9 |
| 20260506041439 | 76 | 169 | 4.0 | 7.0 | 0.00 | 0.00 | 0.00 | 83 | 1002.9 |
| 20260506040903 | 76 | 198 | 3.0 | 11.0 | 0.00 | 0.00 | 0.00 | 83 | 1002.9 |
| 20260506040401 | 77 | 185 | 3.0 | 11.0 | 0.00 | 0.00 | 0.00 | 83 | 1002.9 |
| 20260506035908 | 77 | 186 | 4.0 | 6.0 | 0.00 | 0.00 | 0.00 | 82 | 1002.8 |
| 20260506035352 | 77 | 205 | 1.0 | 3.0 | 0.00 | 0.00 | 0.00 | 81 | 1002.8 |
| 20260506034900 | 77 | 207 | 0.0 | 7.0 | 0.00 | 0.00 | 0.00 | 81 | 1002.8 |
| 20260506034406 | 77 | 188 | 0.0 | 7.0 | 0.00 | 0.00 | 0.00 | 81 | 1002.4 |
| 20260506033853 | 77 | 193 | 3.0 | 7.0 | 0.00 | 0.00 | 0.00 | 81 | 1002.4 |
| 20260506033401 | 77 | 206 | 2.0 | 7.0 | 0.00 | 0.00 | 0.00 | 81 | 1002.4 |
| 20260506032846 | 77 | 184 | 1.0 | 7.0 | 0.00 | 0.00 | 0.00 | 82 | 1002.4 |
| 20260506032332 | 76 | 196 | 4.0 | 7.0 | 0.00 | 0.00 | 0.00 | 82 | 1002.4 |
| 20260506031842 | 76 | 171 | 0.0 | 1.0 | 0.00 | 0.00 | 0.00 | 81 | 1002.4 |
| 20260506031348 | 76 | 177 | 0.0 | 1.0 | 0.00 | 0.00 | 0.00 | 81 | 1002.1 |
| 20260506030952 | 77 | 175 | 0.0 | 0.0 | 0.00 | 0.00 | 0.00 | 81 | 1002.2 |
| 20260506030449 | 77 | 169 | 0.0 | 3.0 | 0.00 | 0.00 | 0.00 | 81 | 1002.2 |
| 20260506025934 | 77 | 165 | 1.0 | 3.0 | 0.00 | 0.00 | 0.00 | 80 | 1002.1 |
| 20260506025442 | 77 | 190 | 0.0 | 3.0 | 0.00 | 0.00 | 0.00 | 80 | 1002.1 |
| 20260506024932 | 77 | 191 | 2.0 | 4.0 | 0.00 | 0.00 | 0.00 | 80 | 1002.1 |
| 20260506024439 | 77 | 180 | 0.0 | 5.0 | 0.00 | 0.00 | 0.00 | 79 | 1001.8 |
| 20260506023925 | 78 | 198 | 2.0 | 5.0 | 0.00 | 0.00 | 0.00 | 79 | 1001.8 |
| 20260506023452 | 78 | 153 | 0.0 | 3.0 | 0.00 | 0.00 | 0.00 | 79 | 1001.8 |
| 20260506022917 | 78 | 188 | 0.0 | 5.0 | 0.00 | 0.00 | 0.00 | 78 | 1001.5 |
| 20260506022424 | 78 | 182 | 1.0 | 5.0 | 0.00 | 0.00 | 0.00 | 78 | 1001.5 |
| 20260506021911 | 78 | 165 | 2.0 | 3.0 | 0.00 | 0.00 | 0.00 | 78 | 1001.5 |
| 20260506021417 | 78 | 182 | 1.0 | 4.0 | 0.00 | 0.00 | 0.00 | 77 | 1001.3 |
| 20260506020904 | 78 | 182 | 1.0 | 5.0 | 0.00 | 0.00 | 0.00 | 77 | 1001.3 |
| 20260506020402 | 79 | 170 | 1.0 | 5.0 | 0.00 | 0.00 | 0.00 | 77 | 1001.3 |
| 20260506015909 | 79 | 165 | 2.0 | 4.0 | 0.00 | 0.00 | 0.00 | 76 | 1000.9 |
| 20260506015356 | 79 | 140 | 0.0 | 6.0 | 0.00 | 0.00 | 0.00 | 76 | 1000.9 |
| 20260506014924 | 79 | 191 | 2.0 | 6.0 | 0.00 | 0.00 | 0.00 | 76 | 1000.9 |
| 20260506014349 | 79 | 155 | 3.0 | 6.0 | 0.00 | 0.00 | 0.00 | 76 | 1000.8 |
| 20260506013916 | 79 | 180 | 3.0 | 6.0 | 0.00 | 0.00 | 0.00 | 75 | 1000.8 |
| 20260506013342 | 79 | 174 | 3.0 | 6.0 | 0.00 | 0.00 | 0.00 | 75 | 1000.8 |
| 20260506012848 | 79 | 217 | 1.0 | 6.0 | 0.00 | 0.00 | 0.00 | 75 | 1000.8 |
| 20260506012333 | 80 | 175 | 3.0 | 7.0 | 0.00 | 0.00 | 0.00 | 75 | 1000.8 |
| 20260506011842 | 80 | 146 | 2.0 | 7.0 | 0.00 | 0.00 | 0.00 | 74 | 1000.8 |
| 20260506011327 | 80 | 360 | 3.0 | 6.0 | 0.00 | 0.00 | 0.00 | 74 | 1000.7 |
| 20260506010936 | 80 | 360 | 3.0 | 7.0 | 0.00 | 0.00 | 0.00 | 74 | 1000.7 |
| 20260506010454 | 80 | 181 | 3.0 | 7.0 | 0.00 | 0.00 | 0.00 | 73 | 1000.7 |
| 20260506005939 | 81 | 360 | 2.0 | 5.0 | 0.00 | 0.00 | 0.00 | 73 | 1000.7 |
| 20260506005446 | 81 | 360 | 3.0 | 10.0 | 0.00 | 0.00 | 0.00 | 73 | 1000.7 |
| 20260506004954 | 81 | 360 | 3.0 | 10.0 | 0.00 | 0.00 | 0.00 | 72 | 1000.7 |
| 20260506004439 | 82 | 131 | 5.0 | 10.0 | 0.00 | 0.00 | 0.00 | 71 | 1000.7 |
| 20260506003927 | 82 | 149 | 4.0 | 10.0 | 0.00 | 0.00 | 0.00 | 71 | 1000.7 |
| 20260506003434 | 82 | 137 | 3.0 | 9.0 | 0.00 | 0.00 | 0.00 | 71 | 1000.7 |
| 20260506002920 | 82 | 170 | 4.0 | 10.0 | 0.00 | 0.00 | 0.00 | 71 | 1000.8 |
| 20260506002427 | 82 | 146 | 5.0 | 10.0 | 0.00 | 0.00 | 0.00 | 71 | 1000.8 |
| 20260506001914 | 82 | 151 | 4.0 | 9.0 | 0.00 | 0.00 | 0.00 | 71 | 1000.8 |
| 20260506001420 | 82 | 169 | 4.0 | 9.0 | 0.00 | 0.00 | 0.00 | 71 | 1000.8 |
| 20260506000907 | 82 | 107 | 2.0 | 6.0 | 0.00 | 0.00 | 0.00 | 71 | 1000.8 |
| 20260506000405 | 82 | 151 | 3.0 | 11.0 | 0.00 | 0.00 | 0.00 | 71 | 1000.8 |
| 20260505235912 | 82 | 163 | 5.0 | 11.0 | 0.00 | 0.00 | 0.00 | 70 | 1000.7 |
| 20260505235358 | 82 | 159 | 2.0 | 7.0 | 0.00 | 0.00 | 0.00 | 71 | 1000.7 |
| 20260505234849 | 82 | 123 | 1.0 | 5.0 | 0.00 | 0.00 | 0.00 | 71 | 1000.7 |
| 20260505234355 | 83 | 149 | 3.0 | 7.0 | 0.00 | 0.00 | 0.00 | 70 | 1000.6 |
| 20260505233859 | 83 | 159 | 3.0 | 10.0 | 0.00 | 0.00 | 0.00 | 70 | 1000.6 |
| 20260505233347 | 83 | 118 | 5.0 | 10.0 | 0.00 | 0.00 | 0.00 | 70 | 1000.6 |
| 20260505232854 | 83 | 153 | 5.0 | 10.0 | 0.00 | 0.00 | 0.00 | 70 | 1000.6 |
| 20260505232340 | 83 | 195 | 3.0 | 10.0 | 0.00 | 0.00 | 0.00 | 69 | 1000.6 |
| 20260505231849 | 83 | 126 | 4.0 | 10.0 | 0.00 | 0.00 | 0.00 | 69 | 1000.6 |
| 20260505231334 | 83 | 158 | 3.0 | 10.0 | 0.00 | 0.00 | 0.00 | 69 | 1000.4 |
| 20260505230959 | 83 | 169 | 3.0 | 10.0 | 0.00 | 0.00 | 0.00 | 68 | 1000.4 |
| 20260505230457 | 83 | 128 | 6.0 | 10.0 | 0.00 | 0.00 | 0.00 | 68 | 1000.4 |
| 20260505225943 | 83 | 144 | 4.0 | 7.0 | 0.00 | 0.00 | 0.00 | 68 | 1000.3 |
| 20260505225450 | 83 | 263 | 2.0 | 7.0 | 0.00 | 0.00 | 0.00 | 68 | 1000.3 |
| 20260505224938 | 83 | 156 | 4.0 | 12.0 | 0.00 | 0.00 | 0.00 | 68 | 1000.3 |
| 20260505224443 | 84 | 123 | 4.0 | 12.0 | 0.00 | 0.00 | 0.00 | 68 | 1000.4 |
| 20260505223930 | 84 | 156 | 3.0 | 10.0 | 0.00 | 0.00 | 0.00 | 68 | 1000.4 |
| 20260505223421 | 84 | 130 | 3.0 | 11.0 | 0.00 | 0.00 | 0.00 | 67 | 1000.4 |
| 20260505222927 | 84 | 195 | 5.0 | 11.0 | 0.00 | 0.00 | 0.00 | 67 | 1000.1 |
| 20260505222414 | 84 | 119 | 5.0 | 11.0 | 0.00 | 0.00 | 0.00 | 67 | 1000.1 |
| 20260505221920 | 84 | 118 | 3.0 | 11.0 | 0.00 | 0.00 | 0.00 | 68 | 1000.1 |
| 20260505221408 | 84 | 139 | 7.0 | 11.0 | 0.00 | 0.00 | 0.00 | 67 | 1000.2 |
| 20260505220915 | 85 | 225 | 2.0 | 11.0 | 0.00 | 0.00 | 0.00 | 67 | 1000.3 |
| 20260505220408 | 85 | 154 | 4.0 | 11.0 | 0.00 | 0.00 | 0.00 | 67 | 1000.3 |
| 20260505215914 | 85 | 149 | 4.0 | 11.0 | 0.00 | 0.00 | 0.00 | 67 | 1000.5 |
| 20260505215402 | 85 | 155 | 6.0 | 11.0 | 0.00 | 0.00 | 0.00 | 66 | 1000.5 |
| 20260505214931 | 85 | 172 | 5.0 | 16.0 | 0.00 | 0.00 | 0.00 | 66 | 1000.5 |
| 20260505214356 | 85 | 202 | 5.0 | 16.0 | 0.00 | 0.00 | 0.00 | 66 | 1000.7 |
| 20260505213844 | 85 | 136 | 5.0 | 11.0 | 0.00 | 0.00 | 0.00 | 66 | 1000.7 |
| 20260505213351 | 86 | 149 | 3.0 | 13.0 | 0.00 | 0.00 | 0.00 | 66 | 1000.7 |
| 20260505212858 | 85 | 194 | 5.0 | 13.0 | 0.00 | 0.00 | 0.00 | 65 | 1000.7 |
| 20260505212344 | 85 | 133 | 6.0 | 11.0 | 0.00 | 0.00 | 0.00 | 64 | 1000.7 |
| 20260505211851 | 85 | 235 | 4.0 | 12.0 | 0.00 | 0.00 | 0.00 | 64 | 1000.7 |
| 20260505211336 | 86 | 149 | 8.0 | 12.0 | 0.00 | 0.00 | 0.00 | 63 | 1001.0 |
| 20260505210448 | 86 | 133 | 4.0 | 12.0 | 0.00 | 0.00 | 0.00 | 65 | 1001.0 |
| 20260505205932 | 85 | 130 | 3.0 | 13.0 | 0.00 | 0.00 | 0.00 | 66 | 1001.1 |
| 20260505205439 | 85 | 151 | 6.0 | 15.0 | 0.00 | 0.00 | 0.00 | 66 | 1001.1 |
| 20260505205008 | 86 | 156 | 6.0 | 15.0 | 0.00 | 0.00 | 0.00 | 65 | 1001.1 |
| 20260505204432 | 86 | 150 | 2.0 | 15.0 | 0.00 | 0.00 | 0.00 | 66 | 1001.1 |
| 20260505204001 | 86 | 242 | 7.0 | 15.0 | 0.00 | 0.00 | 0.00 | 65 | 1001.1 |
| 20260505203427 | 86 | 245 | 4.0 | 16.0 | 0.00 | 0.00 | 0.00 | 65 | 1001.1 |
| 20260505202933 | 85 | 213 | 4.0 | 16.0 | 0.00 | 0.00 | 0.00 | 66 | 1001.3 |
| 20260505202420 | 85 | 196 | 5.0 | 12.0 | 0.00 | 0.00 | 0.00 | 66 | 1001.3 |
| 20260505201927 | 85 | 136 | 4.0 | 12.0 | 0.00 | 0.00 | 0.00 | 66 | 1001.3 |
| 20260505201413 | 85 | 216 | 3.0 | 11.0 | 0.00 | 0.00 | 0.00 | 67 | 1001.8 |
| 20260505200941 | 84 | 170 | 5.0 | 11.0 | 0.00 | 0.00 | 0.00 | 67 | 1001.7 |
| 20260505200418 | 84 | 202 | 3.0 | 12.0 | 0.00 | 0.00 | 0.00 | 67 | 1001.7 |
| 20260505195904 | 84 | 171 | 5.0 | 15.0 | 0.00 | 0.00 | 0.00 | 67 | 1001.8 |
| 20260505195432 | 84 | 232 | 6.0 | 15.0 | 0.00 | 0.00 | 0.00 | 67 | 1001.8 |
| 20260505194856 | 84 | 207 | 6.0 | 13.0 | 0.00 | 0.00 | 0.00 | 67 | 1001.8 |
| 20260505194404 | 84 | 206 | 3.0 | 15.0 | 0.00 | 0.00 | 0.00 | 68 | 1002.1 |
| 20260505193851 | 83 | 155 | 3.0 | 15.0 | 0.00 | 0.00 | 0.00 | 69 | 1002.1 |
| 20260505193358 | 83 | 163 | 5.0 | 15.0 | 0.00 | 0.00 | 0.00 | 68 | 1002.1 |
| 20260505192843 | 83 | 147 | 3.0 | 11.0 | 0.00 | 0.00 | 0.00 | 68 | 1002.2 |
| 20260505192410 | 83 | 125 | 4.0 | 11.0 | 0.00 | 0.00 | 0.00 | 69 | 1002.2 |
| 20260505191838 | 83 | 202 | 4.0 | 11.0 | 0.00 | 0.00 | 0.00 | 68 | 1002.2 |
| 20260505191342 | 83 | 173 | 5.0 | 11.0 | 0.00 | 0.00 | 0.00 | 69 | 1002.4 |
| 20260505190830 | 83 | 211 | 6.0 | 12.0 | 0.00 | 0.00 | 0.00 | 69 | 1002.4 |
| 20260505190449 | 82 | 254 | 5.0 | 12.0 | 0.00 | 0.00 | 0.00 | 69 | 1002.3 |
| 20260505185933 | 82 | 191 | 4.0 | 11.0 | 0.00 | 0.00 | 0.00 | 69 | 1002.5 |
| 20260505185441 | 82 | 175 | 5.0 | 11.0 | 0.00 | 0.00 | 0.00 | 70 | 1002.5 |
| 20260505184929 | 82 | 180 | 6.0 | 11.0 | 0.00 | 0.00 | 0.00 | 69 | 1002.5 |
| 20260505184436 | 82 | 139 | 4.0 | 11.0 | 0.00 | 0.00 | 0.00 | 71 | 1002.9 |
| 20260505183923 | 81 | 217 | 4.0 | 14.0 | 0.00 | 0.00 | 0.00 | 71 | 1002.9 |
| 20260505183430 | 81 | 161 | 7.0 | 13.0 | 0.00 | 0.00 | 0.00 | 69 | 1002.9 |
| 20260505182915 | 81 | 197 | 6.0 | 12.0 | 0.00 | 0.00 | 0.00 | 70 | 1003.2 |
| 20260505182422 | 81 | 209 | 6.0 | 11.0 | 0.00 | 0.00 | 0.00 | 72 | 1003.2 |
| 20260505181932 | 80 | 214 | 4.0 | 10.0 | 0.00 | 0.00 | 0.00 | 72 | 1003.1 |
| 20260505181417 | 80 | 259 | 5.0 | 14.0 | 0.00 | 0.00 | 0.00 | 72 | 1003.3 |
| 20260505180904 | 79 | 261 | 7.0 | 14.0 | 0.00 | 0.00 | 0.00 | 73 | 1003.3 |
| 20260505180402 | 79 | 234 | 5.0 | 11.0 | 0.00 | 0.00 | 0.00 | 73 | 1003.3 |
| 20260505175907 | 78 | 161 | 2.0 | 12.0 | 0.00 | 0.00 | 0.00 | 76 | 1003.4 |
| 20260505175354 | 78 | 209 | 5.0 | 15.0 | 0.00 | 0.00 | 0.00 | 75 | 1003.4 |
| 20260505174901 | 78 | 207 | 5.0 | 15.0 | 0.00 | 0.00 | 0.00 | 75 | 1003.4 |
| 20260505174406 | 78 | 186 | 10.0 | 15.0 | 0.00 | 0.00 | 0.00 | 75 | 1003.6 |
| 20260505173914 | 77 | 208 | 5.0 | 12.0 | 0.00 | 0.00 | 0.00 | 76 | 1003.5 |
| 20260505173359 | 77 | 360 | 4.0 | 11.0 | 0.00 | 0.00 | 0.00 | 76 | 1003.5 |
| 20260505172844 | 77 | 360 | 4.0 | 15.0 | 0.00 | 0.00 | 0.00 | 78 | 1003.7 |
| 20260505172351 | 76 | 128 | 5.0 | 15.0 | 0.00 | 0.00 | 0.00 | 78 | 1003.7 |
| 20260505171858 | 76 | 227 | 7.0 | 14.0 | 0.00 | 0.00 | 0.00 | 78 | 1003.7 |
| 20260505171342 | 76 | 214 | 4.0 | 12.0 | 0.00 | 0.00 | 0.00 | 78 | 1003.9 |
| 20260505170835 | 76 | 202 | 5.0 | 11.0 | 0.00 | 0.00 | 0.00 | 78 | 1003.9 |
| 20260505170451 | 75 | 230 | 5.0 | 13.0 | 0.00 | 0.00 | 0.00 | 78 | 1003.8 |
| 20260505165955 | 75 | 278 | 7.0 | 13.0 | 0.00 | 0.00 | 0.00 | 79 | 1003.9 |
| 20260505165503 | 75 | 228 | 4.0 | 11.0 | 0.00 | 0.00 | 0.00 | 79 | 1003.9 |
| 20260505164931 | 75 | 236 | 4.0 | 12.0 | 0.00 | 0.00 | 0.00 | 80 | 1003.9 |
| 20260505164437 | 75 | 238 | 5.0 | 12.0 | 0.00 | 0.00 | 0.00 | 79 | 1003.9 |
| 20260505163924 | 75 | 259 | 6.0 | 11.0 | 0.00 | 0.00 | 0.00 | 80 | 1003.9 |
| 20260505163432 | 74 | 228 | 4.0 | 11.0 | 0.00 | 0.00 | 0.00 | 80 | 1003.9 |
| 20260505162917 | 74 | 153 | 1.0 | 9.0 | 0.00 | 0.00 | 0.00 | 81 | 1003.8 |
| 20260505162424 | 74 | 164 | 4.0 | 11.0 | 0.00 | 0.00 | 0.00 | 81 | 1003.8 |
| 20260505161934 | 73 | 239 | 8.0 | 14.0 | 0.00 | 0.00 | 0.00 | 81 | 1003.8 |
| 20260505161418 | 73 | 248 | 4.0 | 14.0 | 0.00 | 0.00 | 0.00 | 82 | 1003.7 |
| 20260505160908 | 73 | 277 | 4.0 | 13.0 | 0.00 | 0.00 | 0.00 | 82 | 1003.7 |
| 20260505160405 | 73 | 240 | 8.0 | 13.0 | 0.00 | 0.00 | 0.00 | 82 | 1003.7 |
| 20260505153343 | 72 | 196 | 5.0 | 13.0 | 0.00 | 0.00 | 0.00 | 83 | 1003.8 |
| 20260505152849 | 72 | 227 | 5.0 | 10.0 | 0.00 | 0.00 | 0.00 | 82 | 1003.9 |
| 20260505152335 | 72 | 237 | 3.0 | 13.0 | 0.00 | 0.00 | 0.00 | 82 | 1003.9 |
| 20260505151845 | 72 | 239 | 8.0 | 13.0 | 0.00 | 0.00 | 0.00 | 82 | 1003.9 |
| 20260505151336 | 72 | 244 | 5.0 | 11.0 | 0.00 | 0.00 | 0.00 | 83 | 1003.5 |
| 20260505150843 | 72 | 266 | 5.0 | 12.0 | 0.00 | 0.00 | 0.00 | 83 | 1003.5 |
| 20260505150442 | 72 | 208 | 5.0 | 12.0 | 0.00 | 0.00 | 0.00 | 83 | 1003.5 |
| 20260505140409 | 72 | 252 | 4.0 | 12.0 | 0.00 | 0.00 | 0.00 | 83 | 1003.0 |
| 20260505124930 | 71 | 233 | 3.0 | 12.0 | 0.00 | 0.00 | 0.00 | 83 | 1002.4 |
| 20260505124437 | 71 | 188 | 4.0 | 15.0 | 0.00 | 0.00 | 0.00 | 83 | 1002.3 |
| 20260505123925 | 71 | 243 | 4.0 | 15.0 | 0.00 | 0.00 | 0.00 | 84 | 1002.3 |
| 20260505123433 | 71 | 145 | 4.0 | 10.0 | 0.00 | 0.00 | 0.00 | 84 | 1002.3 |
| 20260505122918 | 71 | 181 | 4.0 | 10.0 | 0.00 | 0.00 | 0.00 | 84 | 1002.1 |
| 20260505122425 | 71 | 190 | 2.0 | 9.0 | 0.00 | 0.00 | 0.00 | 84 | 1002.1 |
| 20260505121932 | 71 | 161 | 2.0 | 12.0 | 0.00 | 0.00 | 0.00 | 84 | 1002.1 |
| 20260505121438 | 71 | 150 | 3.0 | 12.0 | 0.00 | 0.00 | 0.00 | 84 | 1001.8 |
| 20260505120925 | 71 | 198 | 2.0 | 10.0 | 0.00 | 0.00 | 0.00 | 84 | 1001.8 |
| 20260505120417 | 71 | 188 | 4.0 | 11.0 | 0.00 | 0.00 | 0.00 | 84 | 1001.8 |
| 20260505115903 | 71 | 263 | 1.0 | 11.0 | 0.00 | 0.00 | 0.00 | 84 | 1001.6 |
| 20260505115408 | 71 | 210 | 2.0 | 10.0 | 0.00 | 0.00 | 0.00 | 84 | 1001.6 |
| 20260505114855 | 71 | 167 | 2.0 | 7.0 | 0.00 | 0.00 | 0.00 | 84 | 1001.6 |
| 20260505114401 | 71 | 188 | 2.0 | 14.0 | 0.00 | 0.00 | 0.00 | 84 | 1001.7 |
| 20260505113849 | 71 | 207 | 4.0 | 14.0 | 0.00 | 0.00 | 0.00 | 84 | 1001.7 |
| 20260505113356 | 71 | 138 | 2.0 | 9.0 | 0.00 | 0.00 | 0.00 | 84 | 1001.7 |
| 20260505112842 | 71 | 213 | 2.0 | 8.0 | 0.00 | 0.00 | 0.00 | 84 | 1001.8 |
| 20260505112350 | 71 | 238 | 4.0 | 10.0 | 0.00 | 0.00 | 0.00 | 84 | 1001.8 |
| 20260505111837 | 71 | 178 | 3.0 | 10.0 | 0.00 | 0.00 | 0.00 | 83 | 1001.8 |
| 20260505111343 | 71 | 200 | 2.0 | 9.0 | 0.00 | 0.00 | 0.00 | 83 | 1001.7 |
| 20260505110831 | 71 | 136 | 1.0 | 9.0 | 0.00 | 0.00 | 0.00 | 83 | 1001.7 |
| 20260505110408 | 71 | 138 | 3.0 | 9.0 | 0.00 | 0.00 | 0.00 | 83 | 1001.7 |
| 20260505101928 | 71 | 212 | 3.0 | 12.0 | 0.00 | 0.00 | 0.00 | 83 | 1001.9 |
| 20260505101416 | 71 | 175 | 3.0 | 10.0 | 0.00 | 0.00 | 0.00 | 83 | 1002.1 |
| 20260505100945 | 71 | 188 | 3.0 | 10.0 | 0.00 | 0.00 | 0.00 | 83 | 1002.1 |
| 20260505100423 | 71 | 213 | 1.0 | 7.0 | 0.00 | 0.00 | 0.00 | 83 | 1002.1 |